Regional Weather Roundup
Issued by NWS

Home | Current Version | Previous Version | Text Only | Print | Product List | Glossary Off
Versions: 1 2 3 4 5 6 7 8 9 10 11 12 13 14 15 16 17 18 19 20 21 22 23 24 25 26 27 28 29 30 31 32 33 34 35 36 37 38 39 40 41 42 43 44 45 46 47 48 49 50

000
ASUS43 KDTX 221501
RWRMI
MICHIGAN HOURLY REGIONAL WEATHER ROUNDUP
NATIONAL WEATHER SERVICE DETROIT/PONTIAC MI
1000 AM EST SUN JAN 22 2017

NOTE: "FAIR" INDICATES FEW OR NO CLOUDS BELOW 12,000 FEET WITH NO
SIGNIFICANT WEATHER AND/OR OBSTRUCTION TO VISIBILITY.

MIZ047>049-052>055-059>063-066>070-074>076-081>083-221600-
SOUTHEAST LOWER MICHIGAN

CITY           SKY/WX    TMP DP  RH WIND       PRES   REMARKS
ADRIAN         FOG       41  41 100 CALM      29.63R VSB 1/4
ALMA           FOG       38  38  99 CALM      29.65S VSB 1/4
ANN ARBOR      FOG       44  44 100 NW5       29.62S VSB<1/4
BAD AXE        FOG       40  40 100 CALM      29.66R VSB 1/4
CARO           FOG       42  42 100 NE3       29.63F VSB 1/4
DETROIT CITY   FOG       42  42 100 CALM      29.64R VSB 1/2
DETROIT        FOG       44  44 100 N5        29.64R VSB<1/4
FLINT          FOG       43  42  97 CALM      29.64S VSB<1/4
GROSSE ILE     FOG       41  41  99 NE5       29.62R VSB<1/4
HILLSDALE      SUNNY     48  48 100 S3        29.60S
HOWELL         FOG       43  42  97 CALM      29.63R VSB 1/4

CITY           SKY/WX    TMP DP  RH WIND       PRES   REMARKS
JACKSON        FOG       45  43  93 E3        29.62R VSB<1/4
LAMBERTVILLE   PTSUNNY   46  45  95 CALM      29.63R FOG
LANSING        CLOUDY    40  37  89 N3        29.63S FOG
LAPEER         FOG       41  41 100 CALM      29.64S VSB 1/4
MASON          FOG       41  41 100 NE5       29.63R VSB 1/4
MONROE         FOG       42  42 100 CALM      29.63R VSB 1/2
MT. CLEMENS    FOG       39  39 100 CALM      29.63R VSB 1/4
PONTIAC        FOG       42  41  96 CALM      29.62R VSB 1/8
PORT HOPE        N/A     41  41 100 CALM      29.64R
PORT HURON     FOG       41  41 100 CALM      29.65S VSB 1/4
TRI CITIES     FOG       39  39 100 N6        29.65S VSB 1/4 WCI  35
MIDLAND        FOG       39  38  97 CALM      29.65S VSB<1/4
TROY           FOG       42  40  95 CALM      29.65R VSB<1/4
SAGINAW HB     FOG       39  36  87 N3        29.64F VSB 1/4
$$
MIZ043>046-050>051-056>058-064>065-071>073-077>080-221600-
SOUTHWEST LOWER MICHIGAN

CITY           SKY/WX    TMP DP  RH WIND       PRES   REMARKS
BATTLE CREEK   FOG       41  41 100 CALM      29.63R VSB<1/4
BENTON HARBOR  FOG       40  39  97 CALM      29.64R VSB 1/4
BIG RAPIDS     FOG       37  36  98 CALM      29.64R VSB 3/4
COLDWATER      FOG       43  43 100 CALM      29.61S VSB<1/4
FREMONT        FOG       39  39 100 CALM      29.64R VSB 1/2
HOLLAND        CLOUDY    41  40  96 E3        29.64S
GRAND RAPIDS   FOG       35  34  96 NE7       29.64R VSB 1/8 WCI  29
IONIA          FOG       33  33 100 NE5       29.63F VSB<1/4 WCI  29
KALAMAZOO      FOG       39  37  92 CALM      29.63R VSB<1/4
LUDINGTON      CLOUDY    40  40 100 CALM      29.64R FOG
MARSHALL       FOG       44  43  98 CALM      29.62R VSB<1/4
MOUNT PLEASANT FOG       38  38  98 CALM      29.64S VSB 1/4
MUSKEGON       CLOUDY    43  41  93 CALM      29.65R FOG
SOUTH HAVEN    FOG       39  39 100 NE6       29.64R VSB 1/4 WCI  35
$$
MIZ016>042-221600-
NORTHERN LOWER MICHIGAN

CITY           SKY/WX    TMP DP  RH WIND       PRES   REMARKS
ALPENA         FOG       38  37  97 CALM      29.65S VSB 1/4
BEAVER ISLAND  FOG       38  38 100 CALM      29.63S VSB<1/4
BELLAIRE       FOG       36  36  99 CALM      29.65R VSB 3/4
CADILLAC       FOG       36  35  97 CALM      29.63R VSB 1/4
CHARLEVOIX     FOG       37  37 100 CALM      29.67R VSB 3/4
FRANKFORT      CLOUDY    40  40  99 CALM      29.63R FOG
GAYLORD        FOG       37  35  92 CALM      29.63R VSB 1/4
GRAYLING       FOG       36  36  99 CALM      29.65R VSB<1/4
HARBOR SPRINGS FOG       35  35 100 CALM      29.64R VSB 1/2
HOUGHTON LAKE  FOG       38  38 100 CALM      29.64R VSB 1/4
MANISTEE       CLOUDY    39  39 100 CALM      29.64R FOG
OSCODA         FOG       39  39  97 CALM      29.65R VSB 1/4
PELLSTON       FOG       36  35  96 CALM      29.64R VSB 1/4
ROGERS CITY    FOG       37  36  96 CALM      29.66R VSB<1/4
TRAVERSE CITY  CLOUDY    38  37  97 CALM      29.63R FOG
$$
MIZ007>008-015-221600-
EASTERN UPPER MICHIGAN

CITY           SKY/WX    TMP DP  RH WIND       PRES   REMARKS
KINROSS        FOG       35  35 100 E12       29.65R VSB 1/4 WCI  27
MACKINAC ISLAN FOG       35  35 100 E8        29.64R VSB<1/4 WCI  29
NEWBERRY       FOG       35  34  96 SE6       29.62R VSB 1/4 WCI  30
S. S. MARIE    FOG       38  36  92 SE6       29.65R VSB 1   WCI  33
MUNISING         N/A     36  36 100 S3        29.61R
$$
MIZ004>006-011>014-085-221600-
CENTRAL UPPER MICHIGAN

CITY           SKY/WX    TMP DP  RH WIND       PRES   REMARKS
MANISTIQUE     FOG       33  33  98 SE3       29.62R VSB 1/4
ESCANABA       CLOUDY    34  34 100 CALM      29.62R
SAWYER-GWINN   CLOUDY    32  32 100 CALM      29.59R
$$
MIZ001>003-009>011-084-221600-
WESTERN UPPER MICHIGAN

CITY           SKY/WX    TMP DP  RH WIND       PRES   REMARKS
IRON MOUNTAIN  CLOUDY    33  31  92 CALM      29.60R FOG
HOUGHTON       FOG       35  33  92 W3        29.58R VSB 3/4
COPPER HARBOR    N/A     35  35 100 CALM      29.59R
IRONWOOD       FOG       33  33 100 W7        29.62R VSB<1/4 WCI  27
$$

ABBREVIATIONS USED IN REMARKS
   TC - TEMPERATURE IN CELSIUS
  WCI - WIND CHILL INDEX
   HX - HEAT INDEX
  VSB - VISIBILITY





USA.gov is the U.S. government's official web portal to all federal, state and local government web resources and services.